Weather History for South Lake Tahoe, CA

Change the Weather History Date:

Saturday, July 20, 2013

  Actual Average Record
Temperature  
Mean Temperature 71 °F 62 °F  
Max Temperature 94 °F 82 °F 94 °F (2013)
Min Temperature 48 °F 42 °F 27 °F (1987)
Cooling Degree Days 6 1  
Month to date cooling degree days 43 8  
Year to date cooling degree days 64 9  
Since 1 June cooling degree days 64 9  
Growing Degree Days 20 (Base 50)    
Moisture  
Dew Point 41 °F    
Average Humidity 41    
Maximum Humidity 71    
Minimum Humidity 11    
Precipitation  
Precipitation 0.00 in - 0.50 in (1943)
Month to date precipitation 0.01  
Year to date precipitation 5.34  
Sea Level Pressure  
Sea Level Pressure 29.94 in    
Wind  
Wind Speed 3 mph (NE)    
Max Wind Speed 12 mph    
Max Gust Speed 31 mph    
Visibility 10 miles    
Events      
T = Trace of Precipitation, MM = Missing Value Source: NWS Daily Summary

Daily Weather History Graph

Daily Weather History Graph

Search for Another Location

Airport:

Trip Planner

Search our weather history database for the weather conditions in past years. The results will help you decide how hot, cold, wet, or windy it might be!

Date:

Astronomy

Jul. 20, 2013 Rise Set
Actual Time 5:51 AM PDT 8:21 PM PDT
Civil Twilight 5:20 AM PDT 8:51 PM PDT
Nautical Twilight 4:42 AM PDT 9:29 PM PDT
Astronomical Twilight 3:59 AM PDT 10:12 PM PDT
Moon 6:29 PM PDT (7/20) 3:36 AM PDT (7/20)
Length of Visible Light 15h 31m
Length of Day
14h 30m
Waxing Gibbous, 94% of the Moon is Illuminated
Jul 20
Waxing Gibbous
Jul 22
Full
Jul 29
Last Quarter
Aug 6
New
Aug 14
First Quarter

Hourly Weather History & Observations

Time (PDT) Temp. Dew Point Humidity Pressure Visibility Wind Dir Wind Speed Gust Speed Precip Events Conditions
12:53 AM 57.9 °F 42.1 °F 56% 29.99 in 10.0 mi SSW 3.5 mph - N/A   Clear
1:53 AM 55.9 °F 39.0 °F 53% 29.99 in 10.0 mi Calm Calm - N/A   Clear
2:53 AM 54.0 °F 41.0 °F 62% 29.98 in 10.0 mi Calm Calm - N/A   Clear
3:53 AM 51.1 °F 41.0 °F 68% 29.98 in 10.0 mi South 3.5 mph - N/A   Clear
4:53 AM 50.0 °F 39.0 °F 66% 29.98 in 10.0 mi Calm Calm - N/A   Clear
5:53 AM 48.9 °F 39.0 °F 69% 29.99 in 10.0 mi Calm Calm - N/A   Clear
6:53 AM 50.0 °F 39.0 °F 66% 30.00 in 10.0 mi South 3.5 mph - N/A   Clear
7:53 AM 59.0 °F 39.0 °F 48% 30.00 in 10.0 mi Calm Calm - N/A   Clear
8:53 AM 71.1 °F 39.0 °F 31% 29.98 in 10.0 mi Calm Calm - N/A   Clear
9:53 AM 79.0 °F 39.0 °F 24% 29.95 in 10.0 mi NE 5.8 mph - N/A   Clear
10:53 AM 82.0 °F 43.0 °F 25% 29.95 in 10.0 mi NE 8.1 mph - N/A   Clear
11:53 AM 84.9 °F 44.1 °F 24% 29.94 in 10.0 mi NNE 6.9 mph - N/A   Clear
12:53 PM 84.0 °F 46.0 °F 26% 29.94 in 10.0 mi North 6.9 mph - N/A   Clear
1:53 PM 87.1 °F 41.0 °F 20% 29.92 in 10.0 mi Variable 5.8 mph - N/A   Clear
2:53 PM 91.0 °F 30.9 °F 12% 29.90 in 10.0 mi Variable 6.9 mph - N/A   Clear
3:53 PM 91.0 °F 30.0 °F 11% 29.90 in 10.0 mi NNE 5.8 mph - N/A   Clear
4:53 PM 91.9 °F 33.1 °F 12% 29.89 in 10.0 mi NNE 9.2 mph - N/A   Clear
5:53 PM 87.1 °F 35.1 °F 16% 29.90 in 10.0 mi SW 6.9 mph - N/A   Partly Cloudy
6:53 PM 86.0 °F 39.0 °F 19% 29.90 in 10.0 mi SSW 4.6 mph - N/A   Clear
7:53 PM 79.0 °F 46.0 °F 31% 29.91 in 10.0 mi North 4.6 mph - N/A   Clear
8:53 PM 73.0 °F 48.9 °F 42% 29.90 in 10.0 mi Calm Calm - N/A   Clear
9:53 PM 68.0 °F 48.9 °F 50% 29.90 in 10.0 mi Calm Calm - N/A   Clear
10:53 PM 64.9 °F 48.9 °F 56% 29.91 in 10.0 mi Calm Calm - N/A   Clear
11:53 PM 63.0 °F 48.9 °F 60% 29.91 in 10.0 mi SSW 3.5 mph - N/A   Clear